Flag for Germany Weather past 2 weeks in Dortmund, North Rhine-Westphalia, Germany

Now
70 °F

Passing clouds.


Feels Like: 70 °F
Forecast: 39 / 58 °F
Wind: 9 mph from Northwest

Location: Dortmund / Wickede

Current Time: Apr 21, 2015 at 4:28:08 PM

Latest Report: Apr 21, 2015 at 3:50 PM


Visibility: N/A

Pressure: 30.39 "Hg

Humidity: 23%

Dew point: 30 °F

Location of DortmundLocation

Historic Weather in Dortmund — Graph

°F

Dortmund temperature yesterday

Maximum temperature yesterday: 63 °F (at 3:50 PM)
Minimum temperature yesterday: 37 °F (at 6:20 AM)
Average temperature yesterday: 54 °F

Past Weeks' High & Low Weather Summary

 TemperatureHumidityPressure
High73 °F (Apr 15, 4:20 PM)93% (Apr 7, 5:20 AM)30.63 "Hg (Apr 7, 5:20 AM)
Low32 °F (Apr 7, 5:20 AM)20% (Apr 10, 5:50 PM)29.92 "Hg (Apr 15, 6:20 PM)
Average52 °F57%30.26 "Hg
* Reported Apr 6 3:20 PM — Apr 21 3:20 PM, Dortmund, Weather by CustomWeather, © 2015

Note: Actual official high and low records may vary slightly from our data, if they occured in-between our weather recording intervals... More about our weather records

Advertising

Dortmund weather history for previous 24 hours

 ConditionsComfort  
Time TempWeatherWind HumidityBarometerVisibility
3:20 PM
Tue, Apr 21
68 °FPassing clouds.10 mph24%30.39 "HgN/A
2:50 PM66 °FPassing clouds.8 mph26%30.42 "HgN/A
2:20 PM66 °FPassing clouds.7 mph28%30.42 "HgN/A
1:50 PM64 °FPassing clouds.7 mph28%30.42 "HgN/A
1:20 PM64 °FPassing clouds.7 mph30%30.42 "HgN/A
12:50 PM63 °FSunny.8 mph39%30.45 "Hg10 mi
12:20 PM63 °FSunny.5 mph45%30.45 "Hg10 mi
11:50 AM61 °FPassing clouds.7 mph42%30.45 "HgN/A
11:20 AM59 °FPassing clouds.6 mph51%30.45 "HgN/A
10:50 AM55 °FPassing clouds.6 mph55%30.45 "HgN/A
10:20 AM54 °FSunny.2 mph58%30.42 "Hg10 mi
9:50 AM52 °FSunny.2 mph62%30.42 "Hg10 mi
9:20 AM52 °FSunny.1 mph62%30.42 "Hg10 mi
8:50 AM48 °FSunny.2 mph71%30.42 "Hg10 mi
8:20 AM48 °FSunny.No wind71%30.42 "Hg10 mi
7:50 AM45 °FSunny.2 mph76%30.42 "Hg10 mi
7:20 AM41 °FClear.3 mph87%30.42 "Hg10 mi
6:50 AM37 °FClear.5 mph87%30.42 "Hg10 mi
6:20 AM36 °FClear.3 mph81%30.39 "Hg10 mi
5:20 AM43 °FClear.3 mph76%30.39 "Hg10 mi
10:50 PM
Mon, Apr 20
52 °FClear.5 mph58%30.36 "Hg10 mi
10:20 PM52 °FClear.5 mph54%30.36 "Hg10 mi
9:50 PM52 °FClear.3 mph54%30.36 "Hg10 mi
9:20 PM55 °FSunny.3 mph51%30.33 "Hg10 mi
8:50 PM54 °FSunny.5 mph51%30.33 "Hg10 mi
8:20 PM59 °FSunny.5 mph42%30.33 "Hg10 mi
7:50 PM61 °FSunny.6 mph39%30.33 "Hg10 mi
7:20 PM63 °FSunny.9 mph37%30.33 "Hg10 mi
6:50 PM63 °FPassing clouds.8 mph37%30.33 "HgN/A
6:20 PM63 °FSunny.9 mph37%30.33 "Hg10 mi
5:50 PM63 °FPassing clouds.8 mph39%30.33 "HgN/A
5:20 PM63 °FPassing clouds.9 mph39%30.33 "HgN/A
4:50 PM63 °FPassing clouds.8 mph34%30.33 "HgN/A
4:20 PM63 °FPassing clouds.9 mph34%30.33 "HgN/A
Weather by CustomWeather, © 2015

See weather overviewHow to use our weather pages